Regional Weather Roundup
Issued by NWS

Home | Current Version | Previous Version | Graphics & Text | Print | Product List | Glossary On
Versions: 1 2 3 4 5 6 7 8 9 10 11 12 13 14 15 16 17 18 19 20 21 22 23 24 25 26 27 28 29 30 31 32 33 34 35 36 37 38 39 40 41 42 43 44 45 46 47 48 49 50
000
ASUS43 KLOT 032202
RWRIL

ILLINOIS REGIONAL WEATHER ROUNDUP
NATIONAL WEATHER SERVICE CHICAGO/ROMEOVILLE IL
500 PM CDT SUN MAY 03 2015

NOTE: "FAIR" INDICATES FEW OR NO CLOUDS BELOW 12,000 FEET WITH NO
SIGNIFICANT WEATHER AND/OR OBSTRUCTIONS TO VISIBILITY.

* THESE STATIONS ARE NOT UNDER NWS QUALITY CONTROL. THEY ALSO MAY NOT
  REPORT WEATHER SUCH AS PRECIPITATION OR FOG.

ILZ001-002-007-009-015-016-024-032300-
NORTHWEST ILLINOIS

CITY           SKY/WX    TMP DP  RH WIND       PRES   REMARKS
MOLINE         MOSUNNY   83  55  38 SW20G25   29.83F HX  82
STERLING*      CLOUDY    66  61  82 E13       29.89F
$$

ILZ003-004-008-010-011-017-018-032300-
NORTH CENTRAL ILLINOIS

CITY           SKY/WX    TMP DP  RH WIND       PRES   REMARKS
ROCKFORD       TSTM      61  58  90 NE5       29.96S FOG
$$

ILZ005-006-012>014-019>023-032300-
NORTHEAST ILLINOIS

CITY           SKY/WX    TMP DP  RH WIND       PRES   REMARKS
CHICAGO-OHARE  CLOUDY    77  46  33 SW12      29.89F
CHICAGO-MIDWAY CLOUDY    81  46  29 SW16      29.90S HX  80
AURORA         CLOUDY    76  48  37 SW7       29.90S
WAUKEGAN       CLOUDY    73  51  46 CALM      29.90S
DUPAGE AIRPORT CLOUDY    76  48  37 SW10      29.90R
WHEELING       CLOUDY    74  48  39 S5        29.91F
NORTHERLY ISL    N/A     79  42  26 SW14        N/A
$$

LMZ740>746-032300-
SOUTHERN LAKE MICHIGAN

STATION/POSITION SKY/WX   TEMP    WIND        PRES    VSBY  WAVE
                          AIR SEA DIR/SP/G                  HT/PER
                          (F)     (DEG/KT/KT) (MB)    (MI)  (FT/S)
HARRISON CRIB              73     160/ 12/ 14   N/A
BURNHAM HARBOR             78     220/  4/ 12   N/A
CALUMET HARBOR             79     170/  7/ 14   N/A
BURNS HARBOR               77     190/ 12/ 16 1013.9F
MICHIGAN CITY              77     190/ 15/ 19   N/A
MICHIGAN CITY 6N           63 51  220/  6/  8   N/A           1/ 3
ST. JOSEPH                 63 51  110/  2/  2   N/A           1
$$

ILZ025>027-034>036-040-047-049-050-058-095>099-032300-
WEST-CENTRAL ILLINOIS

CITY           SKY/WX    TMP DP  RH WIND       PRES   REMARKS
QUINCY         PTSUNNY   82  55  39 S17G24    29.88F HX  81
$$

ILZ028>032-037-038-041>044-048-051>054-059>061-032300-
CENTRAL ILLINOIS

CITY           SKY/WX    TMP DP  RH WIND       PRES   REMARKS
DECATUR        SUNNY     81  48  31 S21G26    29.94F HX  80
PEORIA         MOSUNNY   85  51  31 SW17      29.88S HX  83
SPRINGFIELD    SUNNY     84  49  29 S17G33    29.91F HX  82
TAYLORVILLE    NOT AVBL
$$

ILZ033-039-045-046-055>057-062-063-032300-
EAST-CENTRAL ILLINOIS

CITY           SKY/WX    TMP DP  RH WIND       PRES   REMARKS
CHAMPAIGN      PTSUNNY   84  42  22 S24G30    29.95F HX  81
MATTOON        MOSUNNY   78  45  30 S14G25    29.97F
$$

ILZ079-100>102-032300-
SOUTHWEST ILLINOIS

CITY           SKY/WX    TMP DP  RH WIND       PRES   REMARKS
BELLEVILLE     MOSUNNY   80  53  38 S9        29.95F HX  80
CAHOKIA*       MOSUNNY   82  48  30 S10G22    29.94F HX  81
$$

ILZ064>066-069>071-074>076-080>082-084>086-088>090-092>094-032300-
SOUTH-CENTRAL ILLINOIS

CITY           SKY/WX    TMP DP  RH WIND       PRES   REMARKS
CARBONDALE     MOSUNNY   78  43  28 SW15G24   30.01S
MARION         MOSUNNY   81  48  32 S12G21    30.02S HX  80
MT. VERNON     SUNNY    N/A N/A N/A S16G22    30.01S
$$

ILZ067-068-072-073-078-083-087-091-032300-
SOUTHEAST ILLINOIS

CITY           SKY/WX    TMP DP  RH WIND       PRES   REMARKS
LAWRENCEVILLE  SUNNY     80  45  28 S17       30.01
$$

ABBREVIATIONS USED IN REMARKS
   TC - TEMPERATURE IN CELSIUS
  WCI - WIND CHILL INDEX
   HX - HEAT INDEX
  VSB - VISIBILITY
$$




USA.gov is the U.S. government's official web portal to all federal, state and local government web resources and services.